SCP
0 0 0 0 0 0 0 0 0 0 0 0 1 0 0 0 0 0 0 0 0 0 0 0 0 0 0 0 0 0 0 0 0 0 0 0 0 0 0 0 0 0 0
0 0 0 0 0 0 0 0 0 0 0 0 0 0 0 0 0 0 0 0 0 0 0 0 0 0 0 0 0 0 0 0 0 0 0 0 0 0 0 0 0 0 0
0 1 1 1 1 1 1 0 0 0 0 0 0 0 0 0 0 0 0 0 0 0 0 0 0 0 0 0 0 0 0 0 0 0 0 0 0 0 0 0 0 0 0
1 1 1 1 1 1 1 0 0 0 0 0 0 0 0 0 1 1 1 1 1 0 0 0 0 0 0 0 0 0 0 0 0 0 0 0 0 0 0 0 0 0 0
1 1 1 1 0 0 0 0 0 0 0 0 0 0 1 1 1 1 1 1 1 1 0 0 0 0 0 0 0 0 0 0 0 0 0 0 0 1 1 0 0 0 0
1 1 1 1 1 1 0 0 0 0 0 0 1 1 1 1 1 1 1 1 1 1 1 1 1 1 1 1 1 1 1 1 1 0 0 0 0 1 1 0 0 0 0
1 1 1 1 1 1 1 0 0 0 0 1 1 1 1 1 1 1 1 1 1 1 1 1 1 1 1 1 1 1 1 1 1 1 1 0 0 1 0 0 0 0 0
2 2 2 2 1 1 1 0 0 0 0 1 1 1 1 1 1 1 1 1 1 1 1 1 1 1 1 1 1 1 1 1 1 1 1 1 1 1 1 1 1 0 0
3 3 3 2 1 1 1 1 0 1 1 1 2 2 2 2 2 1 1 1 1 1 1 1 1 1 1 1 1 1 1 1 1 1 1 1 1 1 1 1 1 1 1
4 4 4 2 1 1 1 1 1 1 1 2 2 3 3 2 2 1 1 1 1 1 1 1 1 1 1 1 1 1 1 1 1 2 2 1 1 1 1 1 1 1 1
4 4 4 2 1 1 1 1 1 1 2 2 3 3 3 2 2 1 1 1 1 1 1 1 1 1 1 1 1 1 1 1 1 1 1 1 1 1 1 1 1 1 1
4 4 3 2 2 2 1 2 2 2 2 2 2 2 2 2 1 1 1 1 1 1 1 1 1 1 1 1 1 1 1 1 0 1 1 1 1 1 1 1 1 1 1
3 3 3 2 2 2 2 2 2 2 2 2 2 2 2 2 1 1 1 1 1 1 1 1 1 1 1 2 1 1 1 0 0 0 0 0 1 1 1 1 1 1 1
2 2 2 2 2 2 2 2 2 2 2 2 2 2 2 2 2 2 2 2 1 1 1 1 1 1 1 2 1 1 1 1 0 0 0 0 0 0 0 1 1 1 1
2 2 2 2 2 2 2 2 2 2 2 2 2 2 2 2 3 3 4 3 2 1 1 1 2 2 1 1 1 1 1 1 0 0 0 0 0 0 0 0 0 0 0
2 2 2 2 2 2 2 2 2 2 2 2 2 2 3 3 3 4 5 4 3 2 1 2 2 2 2 2 1 1 1 1 1 0 0 0 0 0 0 0 0 0 0
2 2 2 2 2 2 2 2 2 2 2 2 2 2 3 3 3 4 4 3 3 2 2 2 3 3 3 2 1 1 1 1 1 0 0 0 0 0 0 0 0 0 0
2 2 2 2 2 2 2 2 1 1 2 2 2 2 2 3 2 2 2 2 2 2 2 2 3 3 3 2 2 1 1 1 1 0 0 0 0 0 0 0 0 0 0
2 2 2 2 2 2 2 1 1 1 2 2 2 2 3 3 2 2 2 2 2 2 3 3 2 2 2 2 2 2 2 1 1 0 0 0 0 0 0 0 0 0 0
2 3 3 2 2 2 2 2 2 2 2 2 2 3 3 3 2 2 2 2 2 2 3 3 3 2 2 2 2 2 3 3 2 1 1 1 0 0 0 0 0 0 0
3 3 2 2 2 2 2 2 2 2 2 2 2 3 2 2 2 2 1 1 1 2 2 3 2 2 2 2 2 2 3 3 3 2 2 2 1 1 0 0 0 0 0
3 2 2 2 2 2 2 2 2 3 3 2 2 2 2 2 2 1 1 1 1 1 1 2 2 2 1 1 1 2 2 3 3 3 4 4 3 2 2 1 0 0 0
3 2 2 2 2 2 2 2 2 3 3 2 2 2 2 2 2 2 2 1 1 1 1 1 1 2 1 1 1 1 1 1 2 3 4 4 3 3 2 1 0 0 0
3 3 3 3 3 3 2 1 2 3 3 2 2 2 2 2 2 2 2 2 2 2 1 1 1 1 1 1 1 1 1 1 1 2 2 2 2 2 2 1 0 0 0
3 3 4 5 6 6 3 1 1 3 3 2 2 1 1 1 1 1 2 2 2 2 1 1 0 0 0 0 0 0 0 1 1 1 1 1 1 1 1 1 1 0 0
3 4 5 6 8 8 4 1 1 3 3 2 1 1 1 1 1 1 1 2 2 2 2 1 0 0 0 0 0 0 0 0 0 1 1 1 1 1 2 1 1 1 0
Wind_Speed
2 3 2 2 2 2 3 2 2 3 2 3 2 3 3 3 3 3 6 8 7 7 7 8 8 8 9 9 9 9 9 9 9 9 9 9 9 9 9 9 8 8 7
2 2 2 2 2 2 2 1 2 2 1 2 2 2 1 2 3 3 4 7 8 7 7 8 8 8 8 8 9 9 9 9 9 9 9 9 9 9 9 9 9 8 8
2 1 1 1 2 2 2 1 1 1 2 2 3 3 2 1 2 2 2 3 6 8 8 8 8 8 9 9 10 10 10 9 9 9 9 9 8 9 9 9 9 8 8
1 1 1 1 1 1 1 1 1 1 1 1 1 1 2 2 2 3 3 3 3 4 8 9 9 8 9 10 10 11 11 10 10 10 10 9 9 9 9 10 10 9 9
2 2 1 1 1 0 0 0 2 0 1 0 1 2 1 2 2 3 2 3 3 3 4 9 10 8 9 10 11 11 11 11 11 11 11 11 10 10 10 10 10 10 10
3 2 2 1 1 1 1 0 0 0 1 1 1 1 1 1 2 2 3 3 3 4 4 5 7 8 10 9 10 11 11 11 11 12 11 12 11 11 11 11 11 11 11
3 3 2 2 2 1 1 2 1 1 1 1 1 1 2 2 2 2 2 2 3 3 4 4 5 4 6 12 11 10 11 11 12 12 12 12 12 12 12 12 12 12 12
4 4 3 3 2 2 2 2 2 2 1 1 2 2 1 3 3 3 3 3 2 2 3 5 4 5 5 4 8 12 12 12 12 12 12 12 13 12 12 13 13 13 13
5 4 3 3 3 3 2 3 3 3 2 2 2 2 2 0 0 3 2 2 2 2 3 3 5 5 6 5 5 10 12 11 12 13 13 13 12 12 13 13 13 13 13
4 4 4 4 4 3 2 4 2 3 3 3 2 2 3 3 2 1 2 2 3 3 3 3 4 4 5 4 4 4 8 9 10 12 12 12 13 12 13 14 15 14 13
5 5 4 4 4 4 3 3 2 4 3 3 3 2 2 2 4 3 2 1 2 2 2 3 3 3 3 4 3 4 6 7 8 9 10 11 12 12 12 13 14 14 14
4 5 5 4 4 4 4 4 4 5 4 4 4 3 3 3 3 2 3 3 2 2 1 1 2 2 2 3 3 4 4 5 5 6 7 8 9 10 12 13 13 14 14
4 5 4 4 4 4 5 4 4 4 4 4 5 4 3 3 3 3 3 3 3 2 2 2 2 1 1 1 1 4 3 4 4 4 4 5 6 7 8 10 11 11 12
4 3 4 5 5 5 5 4 4 4 4 5 5 4 3 3 3 3 3 3 3 3 2 2 1 1 1 1 1 3 2 4 3 3 2 2 3 3 4 5 7 8 8
3 4 4 5 5 5 5 4 4 4 4 5 4 4 4 3 3 3 3 4 4 4 3 1 1 1 1 0 2 1 1 4 4 3 2 1 1 1 2 3 4 5 6
3 3 4 4 4 4 4 4 4 4 4 4 3 3 4 3 3 3 3 4 4 4 4 1 1 0 0 1 2 1 2 5 5 4 3 2 1 1 1 1 1 3 4
4 4 4 4 4 4 4 4 4 3 4 3 3 3 4 4 3 3 3 3 3 3 3 2 1 1 1 1 1 1 1 1 3 6 4 4 3 3 3 2 2 1 1
4 4 4 4 4 3 3 4 4 3 3 3 3 3 3 3 3 3 3 3 2 2 3 2 1 1 0 0 1 1 1 1 2 8 7 6 5 4 4 4 4 3 2
3 3 3 3 3 3 3 3 2 2 1 1 1 1 2 2 2 2 2 2 2 1 1 1 1 1 1 0 1 1 2 1 1 5 7 6 6 5 5 5 4 3 3
3 2 2 2 2 2 3 2 2 2 1 0 0 1 1 1 2 1 1 1 1 0 1 1 1 1 1 1 0 0 1 1 1 2 3 3 6 6 5 5 4 4 3
2 2 2 2 2 2 2 1 2 2 2 2 1 2 2 5 7 5 3 2 1 0 0 0 0 1 1 1 0 0 1 1 2 1 1 1 2 2 3 4 5 5 4
1 2 2 2 1 0 3 2 1 2 3 2 2 2 3 4 5 6 6 6 5 2 2 1 1 1 1 1 1 1 0 1 0 1 1 1 1 2 2 3 6 6 5
2 2 2 2 2 2 4 3 2 2 2 2 2 2 1 3 3 3 4 4 5 5 4 2 2 2 2 2 2 1 1 1 1 1 1 1 1 2 2 5 8 7 6
2 2 2 2 2 2 4 3 3 3 2 2 2 2 2 2 2 1 2 4 4 5 4 3 3 3 3 3 2 1 0 1 1 1 1 1 1 1 1 3 8 6 5
2 2 2 2 2 3 3 2 2 3 3 3 3 3 2 3 3 2 2 3 4 4 7 8 7 5 6 5 4 1 1 1 1 2 1 1 0 0 0 2 5 6 4
2 2 3 3 3 3 3 2 1 2 3 3 3 4 5 4 4 2 2 2 3 3 3 4 4 3 3 4 3 2 2 1 1 1 2 1 1 1 0 1 1 1 2
Wind_Direction
101 99 89 76 76 91 129 117 93 93 107 121 117 114 112 120 128 139 131 154 171 180 183 184 184 183 181 180 178 177 176 175 176 177 176 176 177 176 176 177 178 177 175
95 107 123 105 95 81 57 64 97 113 103 103 112 98 115 129 133 145 143 157 174 184 194 195 194 193 192 186 182 183 183 184 186 184 183 186 186 186 186 187 188 186 185
110 124 123 141 96 91 105 109 93 128 143 131 124 128 132 144 136 147 162 170 169 182 196 201 201 201 197 192 191 191 191 194 194 192 192 194 194 193 194 196 196 193 191
138 176 155 125 112 141 128 122 139 103 81 90 112 118 133 150 166 177 183 192 190 178 182 194 200 203 201 198 199 199 200 201 201 200 201 203 204 203 203 204 203 200 199
197 220 211 72 221 142 325 322 87 9 95 122 173 171 175 172 175 188 191 197 192 203 187 171 188 197 202 206 206 206 208 210 208 207 209 211 210 209 209 209 208 208 208
211 236 200 209 254 191 214 31 54 254 266 253 274 107 212 176 191 180 209 191 190 206 203 185 184 190 199 207 210 209 209 210 212 213 214 215 216 214 212 211 212 214 215
211 229 253 196 247 243 265 236 239 210 225 270 255 201 182 185 193 191 212 209 194 205 208 202 211 201 188 198 207 211 212 211 212 214 216 217 219 218 215 215 216 217 219
223 216 226 229 223 241 242 251 240 267 264 252 280 260 220 177 190 194 195 211 213 204 207 205 207 214 227 200 192 202 213 217 216 216 217 218 220 221 220 220 219 219 220
227 238 229 238 242 251 240 251 245 244 251 242 269 293 290 320 165 162 187 205 217 229 227 212 215 215 221 223 204 193 206 215 219 221 221 219 218 220 221 223 224 223 221
229 228 231 230 239 249 242 241 214 247 249 252 221 245 292 325 293 235 197 193 208 225 239 242 230 214 219 220 210 204 196 210 219 224 226 227 224 222 223 226 227 226 224
226 232 225 227 231 244 250 264 252 256 252 255 262 250 242 235 246 268 272 263 250 236 228 238 242 230 216 221 215 193 177 198 215 226 230 231 231 229 228 228 229 229 227
223 227 228 225 233 243 243 246 246 243 260 266 267 265 261 257 259 259 260 258 261 261 242 241 248 238 220 227 209 123 157 188 207 224 232 237 239 237 234 232 231 232 232
222 215 224 224 237 237 242 244 240 253 250 252 255 257 259 267 276 270 273 274 272 257 228 226 221 240 231 232 175 128 170 186 198 214 227 235 240 240 239 236 236 238 239
238 222 219 224 235 242 246 239 244 241 241 248 254 257 258 257 263 257 264 276 273 259 227 238 211 213 243 224 107 178 168 155 170 192 214 225 229 235 237 236 236 236 240
238 221 223 229 237 241 246 245 248 250 246 247 246 237 246 250 252 253 247 250 264 275 273 220 219 239 201 132 105 185 142 124 138 143 148 162 178 203 233 239 237 232 236
250 235 228 228 236 237 236 239 242 239 240 242 252 264 262 259 252 253 245 246 253 262 274 296 234 259 18 127 120 145 125 126 121 123 116 108 96 72 33 295 257 239 242
234 232 230 231 231 232 231 232 246 240 241 244 246 242 253 273 272 267 261 252 250 244 251 262 241 99 89 20 105 160 139 133 112 115 106 91 80 74 66 55 34 332 261
230 226 226 224 227 225 223 225 236 236 242 247 254 254 258 254 256 271 269 258 249 233 230 238 251 70 76 132 137 172 102 103 94 106 109 99 89 81 75 69 60 52 44
226 223 218 219 223 228 222 218 221 226 235 250 257 261 269 269 270 283 288 281 258 220 196 203 202 112 75 72 126 118 100 76 80 114 123 116 99 88 82 74 65 55 45
214 208 207 216 221 220 212 204 192 184 163 132 4 1 337 340 332 330 311 311 312 84 142 189 168 144 132 116 137 157 106 87 47 47 87 112 121 117 98 81 70 61 53
196 184 177 185 195 207 209 193 175 158 137 121 91 77 61 55 41 24 8 359 359 353 104 127 92 75 66 52 355 309 84 100 86 22 27 101 130 122 121 104 74 59 58
138 141 155 165 163 175 62 81 155 139 130 123 105 108 99 92 80 70 54 41 26 12 5 13 32 45 21 354 350 311 256 238 160 60 341 36 56 67 65 74 67 66 61
145 145 151 145 137 82 78 98 115 137 125 118 121 116 100 86 94 97 96 93 64 44 26 2 26 7 5 1 317 308 38 354 8 45 333 28 46 47 62 81 84 79 71
143 145 142 140 129 94 94 111 132 147 125 114 108 107 107 88 64 56 87 83 68 55 49 47 39 24 22 8 336 306 205 166 149 80 344 326 37 28 45 88 103 97 90
142 144 136 136 129 109 95 119 154 134 118 105 89 72 83 99 46 52 102 99 95 93 85 76 66 65 57 38 355 319 261 223 160 107 52 315 339 10 64 105 116 127 126
137 135 122 118 114 107 84 94 179 149 129 117 104 93 73 63 50 43 109 104 100 92 96 104 98 98 85 77 48 8 336 310 335 65 65 310 309 307 287 93 67 111 125